Regional Weather Roundup
Issued by NWS Wakefield, VA

Home | Current Version | Previous Version | Text Only | Print | Product List | Glossary On
Versions: 1 2 3 4 5 6 7 8 9 10 11 12 13 14 15 16 17 18 19 20 21 22 23 24 25 26 27 28 29 30 31 32 33 34 35 36 37 38 39 40 41 42 43 44 45 46 47 48 49 50
000
ASUS41 KAKQ 231515
RWRAKQ

REGIONAL WEATHER ROUNDUP
NATIONAL WEATHER SERVICE WAKEFIELD VA
1100 AM EDT SAT JUL 23 2016

Note: "fair" indicates few or no clouds below 12,000 feet with no
significant weather and/or obstructions to visibility. * = Denotes
station may not report precipitation (e.g., rain,snow,etc.),
thunder or fog.

VAZ042-051-052>054-056-231600-
NORTHERN VIRGINIA

CITY           SKY/WX    TMP DP  RH WIND       PRES   REMARKS
WASH NATIONAL  FAIR      92  72  51 N10       29.96R HX  99
DULLES         FAIR      90  70  51 NW12      29.97S HX  95
FORT BELVOIR   FAIR      92  70  49 NW9       29.96R HX  97
QUANTICO       FAIR      91  71  51 W5        29.97R HX  97
FREDERICKSBRG* FAIR      91  71  51 N5        29.96S HX  97
STAFFORD*      FAIR      91  69  48 NW8       30.01S HX  95
WARRENTON      FAIR      92  64  40 NW6       29.98S
CULPEPER*      FAIR      89  72  56 CALM      29.99S HX  95
MANASSAS*      SUNNY     91  72  52 N8        29.97  HX  98
LEESBURG*      FAIR      90  75  62 W3        29.99S HX 100
WINCHESTER     FAIR      88  70  55 W5        29.99F
FRONT ROYAL*   FAIR      86  70  58 S7        30.00S
LURAY*         FAIR      86  68  54 S3        30.02S
$$

VAZ048-049-060>072-079>083-231600-
CENTRAL AND SOUTH CENTRAL VIRGINIA

CITY           SKY/WX    TMP DP  RH WIND       PRES   REMARKS
RICHMOND       FAIR      89  72  56 E6        29.97S HX  96
CHESTERFIELD*  FAIR      91  64  40 NE3       29.99S
PETERSBURG*    FAIR      90  74  59 NE5       29.99R HX  98
HANOVER        FAIR      91  70  49 CALM      29.99S HX  96
TAPPAHANNOCK*  FAIR      91  69  47 N5        29.97S HX  95
QUINTON*       FAIR      88  75  65 NE3       29.97S HX  97
CHARLOTTSVILLE FAIR      93  68  43 CALM      30.00S HX  97
GORDONSVILLE*  FAIR      89  73  58 CALM      29.99S HX  97
ORANGE*          N/A     90  70  51 CALM      30.01S HX  95
LOUISA*        FAIR      91  73  55 NE7       29.99R HX 100
BUMPASS*       FAIR      87  74  63 CALM      29.99S HX  95
FARMVILLE*     FAIR      91  71  51 E3        29.99R HX  98
CREWE*         FAIR      88  73  60 NE3       30.00R HX  96
FORT PICKETT*  FAIR      87  75  67 E6        30.00R HX  97
CHASE CITY*    FAIR      88  74  64 CALM      30.01R HX  96
CLARKSVILLE*   FAIR      88  75  66 N3        30.00R HX  97
SOUTH HILL*    FAIR      87  75  68 CALM      30.05S HX  95
LAWRENCEVILLE* FAIR      87  75  68 CALM      29.99S HX  96
EMPORIA*       FAIR      86  73  66 CALM      30.00R
$$

VAZ088>098-231600-
SOUTHEAST VIRGINIA

CITY           SKY/WX    TMP DP  RH WIND       PRES   REMARKS
NORFOLK        FAIR      90  72  55 VRB3      29.97S HX  97
VIRGINIA BEACH FAIR      92  73  53 SW7       29.96S HX 100
NORFOLK NAVAL  FAIR      88  74  63 W6        29.99R HX  96
WEST POINT*    FAIR      87  73  63 SW3       29.98S
SALUDA*        FAIR      87  77  70 W3        29.96S HX  98
NEWPORT NEWS   FAIR      87  76  69 S3        29.98R HX  97
LANGLEY AFB    FAIR      87  76  70 VRB3      29.97S HX  97
FORT EUSTIS    FAIR      88  76  67 NW3       29.97R HX  99
WILLIAMSBURG*  FAIR      90  79  70 CALM      29.98S HX 105
HR EXEC AP*    FAIR      88  75  66 W3        30.00R HX  97
FRANKLIN*      FAIR      86  73  65 CALM      29.99R
US460-WAKEFLD  FAIR      88  75  65 VRB3      29.98R HX  97
$$

VAZ020-022-025-037-045-231600-
WEST CENTRAL AND SOUTHWEST VIRGINIA

CITY           SKY/WX    TMP DP  RH WIND       PRES   REMARKS
STAUNTON*      FAIR      83  68  60 CALM      30.07S
WAYNESBORO*    FAIR      84  65  51 E3        30.07S
HOT SPRINGS VA FAIR      75  63  64 NW6       30.20S
LYNCHBURG      FAIR      87  69  54 VRB3      30.04R
DANVILLE       FAIR      88  73  61 N5        30.01R HX  95
SOUTH BOSTON*  FAIR      88  75  65 CALM      30.00S HX  97
MARTINSVILLE   FAIR      87  67  51 N6        30.06R
ROANOKE        FAIR      88  68  51 NE8       30.07S
BLACKSBURG     FAIR      81  69  65 CALM      30.14S
DUBLIN*        FAIR      83  67  58 N6        30.12S
MARION*        FAIR      84  66  54 CALM      30.17R
HILLSVILLE*    FAIR      79  67  66 N5        30.14R
RICHLANDS*     FAIR      80  70  70 E3        30.16S
WISE*          FAIR      82  59  44 CALM      30.17R
ABINGDON*      FAIR      84  66  53 CALM      30.12R
$$

MDZ021>025-VAZ099-100-231600-
SOUTHERN MARYLAND AND THE DELMARVA PENINSULA

CITY           SKY/WX    TMP DP  RH WIND       PRES   REMARKS
PATUXENT RIVER SUNNY     93  71  48 VRB5      29.95R HX 100
BAY BRIDGE APT SUNNY     88  75  66 W7        29.94R HX  97
LEONARDTOWN    SUNNY     90  70  51 CALM      29.97R HX  95
DOVER          SUNNY     90  76  63 W8        29.91R HX 102
GEORGETOWN     SUNNY     92  72  51 N8        29.93S HX  99
EASTON         SUNNY     90  81  74 NW8       29.98R HX 108
CAMBRIDGE      SUNNY     88  72  58 NW6       29.94R
SALISBURY      SUNNY     90  73  57 N6        29.94R HX  98
OCEAN CITY     SUNNY     90  75  61 CALM      29.93S HX 100
WALLOPS ISLAND FAIR      90  76  63 W5        29.95R HX 101
ACCOMACK*      FAIR      90  73  58 CALM      29.96R HX  98
$$

NCZ012>017-030>032-231600-
NORTH CENTRAL AND EASTERN NORTH CAROLINA

CITY           SKY/WX    TMP DP  RH WIND       PRES   REMARKS
ROANOKE RAPIDS FAIR      84  73  70 CALM      29.99R
RALEIGH        MOSUNNY   87  74  64 CALM      30.01R HX  95
ELIZABETH CITY SUNNY     86  76  71 S5        29.98F HX  96
AHOSKIE*       SUNNY     84  75  74 CALM      30.00R
EDENTON*       SUNNY     86  74  66 SW5       30.00S
CURRITUCK*     SUNNY     86  74  66 SW9       29.99S
KILL DEVIL HLS SUNNY     89  72  57 SW3       29.99S HX  96
MANTEO           N/A     85  75  71 W6        30.00S
CAPE HATTERAS  SUNNY     86  77  74 SW7       30.02S HX  97
TARBORO*       FAIR      86  76  71 W3        30.01R HX  96
GOLDSBORO      MOSUNNY   87  80  81 S8        30.00R HX 102
WASHINGTON     SUNNY     85  75  71 SW5       30.01R
GREENVILLE     SUNNY     88  77  70 CALM      30.02R HX 100
NEW BERN       MOSUNNY   87  74  64 SW9       30.03R HX  95
WILMINGTON     CLOUDY    83  73  72 S5        30.04R
$$

VAZ048-231600-
ELSEWHERE

CITY           SKY/WX    TMP DP  RH WIND       PRES   REMARKS
HARRISBURG PA  MOSUNNY   89  72  56 W7        29.92S HX  96
BALTIMORE      MOSUNNY   92  71  50 W7        29.94R HX  98
ANNAPOLIS      SUNNY     90  73  57 NW6       29.94R HX  98
ANDREWS AFB    FAIR      89  72  56 NW10      29.96R HX  96
PHILADELPHIA   MOSUNNY   89  70  53 W8        29.91R
GREENSBORO     MOSUNNY   89  69  51 VRB3      30.02S
ROCKY MOUNT    SUNNY     86  77  74 CALM      30.00S HX  97
$$

VAZ100-231600-
MARINE

STATION/POSITION TIME  TEMP    WIND        PRES    WAVE   SWELL
                       AIR SEA DIR/SP/G            HT/PER HT/PER
                 (UTC) (F)     (DEG/KT/KT) (MB)    (FT/S) (FT/S)
BRANDYWINE LGT   1400   82     310/ 10/ 11   N/A
CAPE MAY NJ      1400   83 74  290/  5/  6 1012.7F
LEWES DE         1400   81 73  330/  4/  5 1013.0S
OCEAN-CITY-INLET 1400   85 69   30/  4/  6 1013.7F
WACHAPREAGUE VA  1400   89 83  280/  1/  5 1014.0F
THOMAS POINT MD  1500   86 82  290/  8/  8 1015.3R
GOOSES REEF MD   1400   85 82  330/  8/  8 1014.8F   1/ 2
COVE POINT MD    1400   84     350/  9/ 10 1014.4F
SOLOMONS ISLAND  1400   87 83  270/  6/  8   N/A
BISHOPS HEAD MD  1400   85 84  270/  7/  9 1014.0F
PINEY POINT MD   1400          310/  9/  9   N/A
POTOMAC MD       1400   83 84  290/  8/  8 1013.0F   0
CAMBRIDGE MD     1400   86 85  280/  7/ 10 1012.8F
LEWISETTA VA     1400   85 84  320/  6/  8 1013.8F
RAPPAHANNOCK LGT 1400          260/  5/  6 1015.0F
STINGRAY PT      1400   83 85  230/  4/  6 1014.8F   0
YORK RVR RNG VA  1400   83     260/  6/  6 1014.2S
YORKTOWN VA      1400   83 82  250/  2/  4 1014.3S
JAMESTOWN VA     1400   82 86     CALM       N/A     0
DOMINION TERM VA 1400   81     240/  4/  5 1015.0S
KIPTOPEKE VA     1400      82  270/  6/  7   N/A
CHES BAY BRIDGE  1400   81 77  230/  6/  6 1014.7S
CAPE HENRY VA    1400   84     240/  5/  7   N/A
WILLOUBY STN VA  1400   80     240/  8/  9   N/A
CAPE HENRY BUOY  1412      75                N/A     2/ 8
1ST LANDING BUOY 1400   81 81  250/  6/  8 1014.5F
CAPE CHARLES BUO 1426      66                N/A     2/ 9
OFFSHORE WE BUOY 1421      80                N/A     3/ 9
64NM E OF VA BCH 1450   80 80  230/ 14/ 16 1015.0R   4/ 5   2/10
DUCK PIER NC     1400   82 60  230/ 10/ 13 1014.9F
44100 DUCK FRF   1405      80                N/A     2/ 9
44056 DUCK FRF   1411      68                N/A     2/ 9
OREGON INLET NC  1400   83 82  230/ 12/ 14 1015.7F
HATTERAS NC      1400   84 82  220/  7/ 10 1016.1F
DIAMOND SHLS NC  1450   84 86  220/ 10/ 12 1016.8R   2/ 8   2/ 8
CAPE LOOKOUT NC  1500   85     230/  7/ 10 1016.7R
$$



USA.gov is the U.S. government's official web portal to all federal, state and local government web resources and services.